Погода в Кемпно

Польша     51°17′33″N   17°59′52″E
темп.,
°C
ветер,
м/с
пор.,
м/с
влажн.,
%
обл.,
%
осадки,
мм/ч
давл.,
гПа
погр.,
м
27 февраля, сб
сб2701:00+5зсз5118699 0.1 1030600
04:00+2зсз512937 0.0 1029401
07:00+2сз6109434 0.0 1031593
10:00+3сз61089100 0.0 1032678
13:00+4сз71080100 0.0 1034764
16:00+5сз697697 0.0 1034910
19:00+4зсз388198 0.1 1035329
22:00+3зсз4109082 0.0 1036327
28 февраля, вс
вс2801:00+1зсз489643 0.0 1037201
04:00+1зсз489772 0.0 1036253
07:00+2зсз589586 0.0 1036429
10:00+4зсз597689 0.0 1035486
13:00+8зсз696745 0.0 1034688
16:00+8зсз58670 0.0 1032820
19:00+5сз49902 0.0 1033288
22:00+3ссз379636 0.0 1034236
1 марта, пн
пн101:00+1ссз249618 0.0 103586
04:00+1сз23960 0.0 103439
07:00+1сз22960 0.0 103626
10:00+5з22760 0.0 1036326
13:00+8з22620 0.0 1035529
16:00+9з23600 0.0 1034617
19:00+6зюз23780 0.0 103522
22:00+4зюз23840 0.0 103527
2 марта, вт
вт201:00+3зюз23870 0.0 103528
04:00+3зюз33880 0.0 103439
07:00+2зюз22880 0.0 103422
10:00+7з34670 0.0 1034276
13:00+11зсз34510 0.0 1034559
16:00+12зсз23510 0.0 1032519
19:00+7з22670 0.0 103322
22:00+6зюз22730 0.0 103322
3 марта, ср
ср301:00+5зюз12760 0.0 103322
04:00+4юз11790 0.0 103222
07:00+3ююз22810 0.0 103122
10:00+8ююз236420 0.0 1031204
13:00+12ююз234957 0.0 1029435
16:00+12юз235197 0.0 1027207
19:00+8ююз226163 0.0 102622
22:00+6зюз34740 0.0 102649